1495857600.09,1303,12.75,73820.8,-1.07,-3.43,-3.63,0,*65
1495857601.31,1304,12.75,73820.8,-1.07,-3.35,-3.43,0,*61
1495857602.5,1305,12.75,73824.5,-1.07,-3.31,-3.31,0,*61
1495857603.68,1306,12.75,73826.8,-1.07,-3.23,-3.23,0,*62
1495857604.88,1307,12.75,73818.5,-1.07,-3.35,-3.35,0,*63
1495857606.12,1308,12.75,73828.0,-1.11,-3.43,-3.43,0,*6B
1495857607.31,1309,12.75,73816.3,-1.07,-3.95,-3.87,0,*6E
1495857608.55,1310,12.75,73806.3,-1.11,-3.59,-3.47,0,*6D
1495857609.76,1311,12.75,73806.0,-1.13,-3.23,-3.23,0,*61
1495857610.97,1312,12.75,73812.8,-1.13,-2.87,-2.79,0,*63
1495857612.19,1313,12.75,73812.5,-1.11,-2.71,-2.87,0,*68
1495857613.43,1314,12.75,73814.0,-1.13,-2.75,-2.87,0,*69
1495857614.65,1315,12.75,73816.8,-1.13,-2.79,-2.79,0,*65
1495857615.89,1316,12.75,73816.3,-1.13,-2.71,-2.79,0,*6E
1495857617.1,1317,12.75,73808.0,-1.11,-2.71,-2.83,0,*68
1495857618.35,1318,12.75,73802.5,-1.11,-2.67,-2.67,0,*6A
1495857619.56,1319,12.75,73814.0,-1.13,-2.39,-2.39,0,*69
1495857620.75,1320,12.75,73814.3,-1.11,-2.31,-2.35,0,*65
1495857621.94,1321,12.75,73816.3,-1.11,-2.35,-2.35,0,*60
1495857623.14,1322,12.75,73812.8,-1.07,-2.19,-2.23,0,*6D
1495857624.38,1323,12.75,73812.5,-1.05,-2.15,-2.07,0,*64
1495857625.65,1324,12.75,73808.8,-1.05,-1.95,-2.03,0,*6C
1495857626.86,1325,12.75,73802.3,-1.05,-2.19,-2.27,0,*6C
1495857628.1,1326,12.75,73816.8,-1.05,-2.07,-2.15,0,*61
1495857629.32,1327,12.75,73822.5,-1.03,-2.15,-2.07,0,*66
1495857630.5,1328,12.75,73820.8,-1.03,-2.19,-2.27,0,*67
1495857631.75,1329,12.75,73816.3,-1.03,-2.07,-2.03,0,*6F
1495857633.02,1330,12.75,73804.3,-1.01,-1.99,-1.99,0,*61
1495857634.29,1331,12.75,73802.8,-1.01,-1.91,-1.99,0,*68
1495857635.54,1332,12.75,73806.0,-1.03,-1.83,-1.91,0,*62
1495857636.78,1333,12.75,73802.8,-1.01,-1.79,-1.87,0,*63
1495857638.04,1334,12.75,73806.5,-0.97,-1.83,-1.87,0,*5F
1495857639.28,1335,12.75,73808.5,-0.99,-1.91,-1.91,0,*54
1495857640.46,1336,12.75,73810.5,-0.99,-1.75,-1.75,0,*57
1495857641.64,1337,12.75,73808.5,-0.95,-1.55,-1.55,0,*5A
1495857642.82,1338,12.75,73812.0,-0.95,-1.63,-1.63,0,*55
1495857644.03,1339,12.75,73810.5,-0.93,-1.51,-1.63,0,*53
1495857645.27,1340,12.75,73822.3,-0.95,-1.39,-1.39,0,*5A
1495857646.48,1341,12.75,73808.3,-0.91,-1.47,-1.51,0,*58
1495857647.69,1342,12.75,73814.5,-0.89,-1.63,-1.67,0,*51
1495857648.89,1343,12.75,73820.5,-0.89,-1.63,-1.59,0,*5D
1495857650.1,1344,12.75,73804.5,-0.89,-1.63,-1.63,0,*53
1495857651.36,1345,12.75,73812.3,-0.89,-1.13,-1.05,0,*55
1495857652.56,1346,12.75,73834.3,-0.83,-0.77,-0.69,0,*54
1495857653.77,1347,12.75,73868.3,-0.79,-0.53,-0.37,0,*5D
1495857654.98,1348,12.75,73828.5,-0.79,-0.41,-0.15,0,*51
1495857656.17,1349,12.75,73814.8,-0.75,-0.33,-0.03,0,*6E
1495857657.38,1350,12.75,73814.0,-0.71,-0.65,-0.41,0,*57
1495857658.55,1351,12.75,73824.3,-0.69,-0.33,-0.19,0,*51
1495857659.77,1352,12.75,73822.5,-0.67,-0.29,-0.27,0,*5A
1495857660.95,1353,12.75,73816.8,-0.61,-0.45,-0.33,0,*52
1495857662.12,1354,12.75,73818.5,-0.61,-0.57,-0.45,0,*57
1495857663.3,1355,12.75,73840.5,-0.61,-0.73,-0.65,0,*52
1495857664.49,1356,12.75,73838.3,-0.57,-0.69,-0.85,0,*51
1495857665.69,1357,12.75,73846.3,-0.53,-0.81,-0.89,0,*5E
1495857666.9,1358,12.75,73836.5,-0.53,-1.13,-1.17,0,*5D
1495857668.12,1359,12.75,73840.8,-0.51,-1.29,-1.21,0,*52
1495857669.38,1360,12.75,73844.5,-0.51,-2.11,-1.95,0,*5F
1495857670.58,1361,12.75,73820.3,-0.51,-2.27,-1.59,0,*5B
1495857671.79,1362,12.75,73824.8,-0.45,-1.95,-1.79,0,*55
1495857673.02,1363,12.75,73826.0,-0.45,-1.95,-1.91,0,*52
1495857674.29,1364,12.75,73842.0,-0.39,-2.03,-2.47,0,*5A
1495857675.53,1365,12.75,73834.0,-0.39,-2.75,-3.27,0,*5D
1495857676.73,1366,12.75,73816.5,-0.39,-2.79,-2.87,0,*59
1495857677.96,1367,12.75,73828.5,-0.37,-3.59,-3.63,0,*5E
1495857679.14,1368,12.75,73818.3,-0.37,-4.53,-3.79,0,*57
1495857680.39,1369,12.75,73812.8,-0.35,-5.15,-4.53,0,*58
1495857681.6,1370,12.75,73818.8,-0.37,-7.19,-5.77,0,*5B
1495857682.86,1371,12.75,73808.0,-0.35,-9.37,-7.01,0,*59
1495857684.08,1372,12.75,73814.8,-0.37,-10.93,-7.31,0,*6D
1495857685.32,1373,12.75,73814.0,-0.37,-11.07,-7.65,0,*61
1495857686.56,1374,12.75,73818.0,-0.37,-11.55,-7.99,0,*62
1495857687.77,1375,12.75,73820.0,-0.37,-10.27,-7.01,0,*66
1495857688.99,1376,12.75,73814.8,-0.37,-9.05,-5.93,0,*54
1495857690.23,1377,12.75,73810.0,-0.37,-9.41,-5.81,0,*56
1495857691.44,1378,12.75,73804.3,-0.37,-8.75,-5.93,0,*5C
1495857692.68,1379,12.75,73824.5,-0.39,-7.83,-5.61,0,*58
1495857693.91,1380,12.75,73826.8,-0.39,-7.39,-6.35,0,*5D
1495857695.12,1381,12.75,73826.0,-0.39,-8.25,-8.21,0,*55
1495857696.35,1382,12.75,73818.8,-0.39,-9.01,-10.35,0,*6D
1495857697.6,1383,12.75,73820.0,-0.39,-10.45,-11.29,0,*58
1495857698.85,1384,12.75,73822.8,-0.39,-11.93,-12.39,0,*57
1495857700.08,1385,12.75,73830.8,-0.39,-11.41,-12.39,0,*59
1495857701.27,1386,12.75,73834.8,-0.37,-11.19,-13.11,0,*52
1495857702.52,1387,12.75,73840.0,-0.39,-11.63,-12.47,0,*52
1495857703.74,1388,12.75,73840.8,-0.39,-10.35,-10.23,0,*5F
1495857704.99,1389,12.75,73834.5,-0.39,-11.77,-11.19,0,*51
1495857706.2,1390,12.75,73832.0,-0.43,-13.07,-10.85,0,*55
1495857707.42,1391,12.75,73846.8,-0.43,-13.51,-10.85,0,*57
1495857708.63,1392,12.75,73850.8,-0.43,-12.39,-9.67,0,*6F
1495857709.84,1393,12.75,73848.5,-0.43,-10.01,-7.87,0,*67
1495857711.05,1394,12.75,73844.5,-0.39,-9.27,-6.85,0,*52
1495857712.31,1395,12.75,73846.8,-0.43,-9.61,-5.73,0,*56
1495857713.54,1396,12.75,73850.3,-0.43,-8.03,-4.57,0,*57
1495857714.77,1397,12.75,73848.8,-0.39,-6.09,-3.63,0,*5F
1495857716.01,1398,12.75,73850.8,-0.39,-4.93,-3.47,0,*57
1495857717.22,1399,12.75,73844.0,-0.39,-4.17,-3.39,0,*53
1495857718.47,1400,12.75,73852.8,-0.39,-3.63,-3.47,0,*59
1495857719.71,1401,12.75,73850.8,-0.39,-3.63,-3.79,0,*55
1495857720.97,1402,12.75,73848.3,-0.43,-3.43,-3.51,0,*53
1495857722.17,1403,12.75,73848.0,-0.39,-3.23,-3.39,0,*57
1495857723.37,1404,12.75,73850.0,-0.39,-3.11,-3.23,0,*5A
1495857724.64,1405,12.75,73852.8,-0.39,-2.75,-2.71,0,*5E
1495857725.85,1406,12.75,73852.5,-0.37,-2.91,-2.71,0,*59
1495857727.08,1407,12.75,73844.3,-0.39,-2.51,-2.15,0,*58
1495857728.29,1408,12.75,73846.3,-0.37,-2.27,-1.87,0,*50
1495857729.5,1409,12.75,73848.3,-0.37,-1.87,-1.75,0,*55
1495857730.71,1410,12.75,73852.0,-0.37,-1.51,-1.39,0,*5E
1495857731.97,1411,12.75,73842.0,-0.35,-1.47,-1.47,0,*53
1495857733.19,1412,12.75,73832.3,-0.35,-1.71,-1.79,0,*58
1495857734.4,1413,12.75,73830.8,-0.35,-1.79,-1.79,0,*51
1495857735.63,1414,12.75,73828.8,-0.35,-1.79,-1.83,0,*53
1495857736.84,1415,12.75,73834.5,-0.31,-1.55,-1.55,0,*53
1495857738.08,1416,12.75,73834.5,-0.31,-1.39,-1.51,0,*5E
1495857739.34,1417,12.75,73836.3,-0.31,-1.91,-1.91,0,*51
1495857740.55,1418,12.75,73826.8,-0.31,-1.75,-1.75,0,*5E
1495857741.74,1419,12.75,73822.3,-0.33,-1.67,-1.71,0,*5A
1495857742.97,1420,12.75,73830.0,-0.31,-1.63,-1.87,0,*5F
1495857744.23,1421,12.75,73834.3,-0.31,-1.87,-1.87,0,*54
1495857745.47,1422,12.75,73834.3,-0.29,-2.11,-1.83,0,*56
1495857746.69,1423,12.75,73834.8,-0.29,-2.15,-1.91,0,*50
1495857747.92,1424,12.75,73840.5,-0.27,-2.15,-1.91,0,*59
1495857749.17,1425,12.75,73850.0,-0.27,-2.59,-2.47,0,*58
1495857750.38,1426,12.75,73838.0,-0.27,-2.99,-3.03,0,*56
1495857751.62,1427,12.75,73848.8,-0.27,-3.63,-3.79,0,*5E
1495857752.87,1428,12.75,73844.3,-0.27,-4.77,-5.19,0,*53
1495857754.08,1429,12.75,73842.0,-0.25,-6.55,-5.69,0,*55
1495857755.32,1430,12.75,73840.8,-0.27,-6.51,-5.11,0,*54
1495857756.53,1431,12.75,73842.5,-0.29,-4.81,-4.29,0,*5E
1495857757.72,1432,12.75,73838.5,-0.29,-4.17,-4.41,0,*5C
1495857758.94,1433,12.75,73830.5,-0.29,-4.01,-4.65,0,*5C
1495857760.18,1434,12.75,73828.0,-0.31,-4.09,-5.11,0,*58
1495857761.44,1435,12.75,73828.0,-0.31,-3.71,-4.69,0,*5F
1495857762.66,1436,12.75,73834.0,-0.33,-3.71,-4.53,0,*57
1495857763.89,1437,12.75,73834.0,-0.35,-3.35,-3.63,0,*54
1495857765.1,1438,12.75,73832.8,-0.35,-2.99,-3.31,0,*5B
1495857766.3,1439,12.75,73840.3,-0.35,-2.87,-3.19,0,*5F
1495857767.5,1440,12.75,73846.3,-0.39,-2.79,-3.23,0,*55
1495857768.73,1441,12.75,73848.0,-0.39,-2.91,-3.67,0,*52
1495857769.96,1442,12.75,73854.5,-0.39,-3.35,-4.77,0,*58
1495857771.22,1443,12.75,73846.5,-0.43,-3.67,-4.85,0,*5E
1495857772.44,1444,12.75,73850.0,-0.43,-3.83,-4.09,0,*57
1495857773.67,1445,12.75,73850.3,-0.43,-3.51,-4.05,0,*55
1495857774.88,1446,12.75,73842.5,-0.43,-4.09,-4.45,0,*58
1495857776.14,1447,12.75,73846.3,-0.43,-3.63,-4.85,0,*5E
1495857777.39,1448,12.75,73844.5,-0.47,-3.75,-5.27,0,*5B
1495857778.65,1449,12.75,73842.0,-0.47,-3.71,-5.11,0,*5B
1495857779.9,1450,12.75,73848.3,-0.47,-3.75,-5.15,0,*53
1495857781.16,1451,12.75,73850.8,-0.47,-4.01,-6.23,0,*50
1495857782.38,1452,12.75,73836.8,-0.47,-4.21,-6.31,0,*52
1495857783.59,1453,12.75,73850.3,-0.51,-4.25,-6.39,0,*58
1495857784.83,1454,12.75,73850.3,-0.51,-5.03,-8.45,0,*5F
1495857786.03,1455,12.75,73844.5,-0.51,-6.39,-9.31,0,*56
1495857787.22,1456,12.75,73846.3,-0.53,-6.31,-7.87,0,*5C
1495857788.42,1457,12.75,73852.5,-0.53,-5.73,-6.69,0,*59
1495857789.67,1458,12.75,73850.3,-0.55,-4.73,-5.85,0,*50
1495857790.89,1459,12.75,73848.8,-0.55,-4.69,-6.01,0,*55
1495857792.12,1460,12.75,73842.8,-0.55,-5.35,-7.95,0,*5B
1495857793.36,1461,12.75,73834.8,-0.59,-5.93,-7.49,0,*5B
1495857794.6,1462,12.75,73834.0,-0.59,-5.27,-6.69,0,*54
1495857795.83,1463,12.75,73834.0,-0.59,-5.11,-6.73,0,*5B
1495857797.06,1464,12.75,73840.0,-0.59,-5.65,-7.53,0,*5C
1495857798.29,1465,12.75,73836.3,-0.59,-6.43,-10.19,0,*62
1495857799.5,1466,12.75,73836.5,-0.63,-8.21,-9.97,0,*5C
1495857800.76,1467,12.75,73854.5,-0.63,-7.91,-12.15,0,*69
1495857801.99,1468,12.75,73842.3,-0.63,-12.93,-20.05,0,*50
1495857803.25,1469,12.75,73842.5,-0.63,-11.81,-13.87,0,*5B
1495857804.49,1470,12.75,73852.8,-0.67,-9.57,-15.25,0,*6B
1495857805.71,1471,12.75,73850.5,-0.69,-11.63,-18.17,0,*56
1495857806.96,1472,12.75,73832.5,-0.69,-12.53,-16.13,0,*5F
1495857808.17,1473,12.75,73836.8,-0.71,-8.93,-8.93,0,*57
1495857809.38,1474,12.75,73846.0,-0.71,-6.81,-7.53,0,*5E
1495857810.58,1475,12.75,73844.3,-0.71,-6.39,-7.49,0,*57
1495857811.79,1476,12.75,73842.5,-0.73,-6.89,-8.07,0,*58
1495857813.03,1477,12.75,73840.0,-0.73,-6.97,-7.39,0,*54
1495857814.29,1478,12.75,73852.5,-0.75,-6.19,-6.97,0,*5E
1495857815.52,1479,12.75,73856.3,-0.75,-6.05,-7.95,0,*51
1495857816.75,1480,12.75,73844.0,-0.75,-7.01,-8.33,0,*51
1495857817.93,1481,12.75,73846.3,-0.77,-6.47,-6.89,0,*5E
1495857819.14,1482,12.75,73860.8,-0.77,-6.27,-7.83,0,*50
1495857820.34,1483,12.75,73854.8,-0.77,-6.27,-8.75,0,*57
1495857821.52,1484,12.75,73846.8,-0.77,-6.77,-9.05,0,*53
1495857822.76,1485,12.75,73840.3,-0.77,-6.93,-9.37,0,*59
1495857823.99,1486,12.75,73836.3,-0.79,-7.05,-8.63,0,*5A
1495857825.23,1487,12.75,73846.3,-0.81,-7.05,-7.73,0,*52
1495857826.47,1488,12.75,73834.5,-0.79,-6.93,-7.87,0,*5F
1495857827.71,1489,12.75,73824.5,-0.81,-6.97,-7.31,0,*50
1495857828.92,1490,12.75,73830.0,-0.81,-6.27,-8.71,0,*58
1495857830.13,1491,12.75,73834.5,-0.81,-6.19,-9.89,0,*52
1495857831.35,1492,12.75,73838.8,-0.81,-7.23,-10.63,0,*65
1495857832.57,1493,12.75,73846.8,-0.83,-7.11,-8.29,0,*50
1495857833.78,1494,12.75,73840.3,-0.83,-6.73,-8.17,0,*5F
1495857834.99,1495,12.75,73846.5,-0.85,-6.35,-8.45,0,*5D
1495857836.2,1496,12.75,73838.5,-0.83,-6.73,-8.33,0,*5B
1495857837.46,1497,12.75,73828.5,-0.85,-6.19,-7.43,0,*58
1495857838.69,1498,12.75,73838.3,-0.85,-5.69,-6.89,0,*54
1495857839.91,1499,12.75,73830.3,-0.85,-4.93,-5.97,0,*5D
1495857841.12,1500,12.75,73834.8,-0.85,-4.29,-5.43,0,*54
1495857842.31,1501,12.75,73830.5,-0.85,-4.53,-6.09,0,*55
1495857843.54,1502,12.75,73830.3,-0.85,-4.25,-5.73,0,*59
1495857844.74,1503,12.75,73834.0,-0.85,-4.53,-6.09,0,*57
1495857845.97,1504,12.75,73810.0,-0.85,-4.73,-6.09,0,*52
1495857847.17,1505,12.75,73812.5,-0.89,-4.17,-5.43,0,*50
1495857848.38,1506,12.75,73814.3,-0.89,-4.21,-5.47,0,*52
1495857849.63,1507,12.75,73852.8,-0.89,-4.69,-6.63,0,*5A
1495857850.84,1508,12.75,73840.8,-0.91,-7.01,-8.93,0,*50
1495857852.06,1509,12.75,73854.8,-0.91,-9.15,-13.93,0,*60
1495857853.3,1510,12.75,73844.0,-0.91,-14.23,-21.23,0,*5B
1495857854.53,1511,12.75,73836.5,-0.89,-17.63,-27.93,0,*59
1495857855.75,1512,12.75,73828.5,-0.91,-22.87,-30.17,0,*55
1495857857.0,1513,12.75,73822.8,-0.93,-20.89,-26.97,0,*55
1495857858.24,1514,12.75,73828.3,-0.91,-15.21,-17.25,0,*5F
1495857859.46,1515,12.75,73834.3,-0.95,-11.15,-14.01,0,*5C
1495857860.66,1516,12.75,73822.5,-0.95,-10.97,-18.99,0,*59
1495857861.86,1517,12.75,73818.0,-0.95,-10.85,-17.35,0,*52
1495857863.07,1518,12.75,73826.8,-0.95,-9.53,-13.73,0,*68
1495857864.28,1519,12.75,73832.8,-0.95,-7.87,-11.81,0,*61
1495857865.47,1520,12.75,73836.8,-0.95,-8.45,-13.51,0,*65
1495857866.71,1521,12.75,73836.8,-0.95,-8.03,-11.89,0,*61
1495857867.98,1522,12.75,73836.3,-0.93,-7.05,-14.01,0,*68
1495857869.19,1523,12.75,73840.0,-0.95,-8.45,-16.31,0,*65
1495857870.43,1524,12.75,73836.0,-0.95,-7.91,-11.81,0,*68
1495857871.64,1525,12.75,73822.3,-0.95,-8.03,-11.19,0,*6C
1495857872.83,1526,12.75,73830.0,-0.95,-7.23,-10.97,0,*65
1495857874.06,1527,12.75,73836.8,-0.95,-8.37,-12.79,0,*6C
1495857875.26,1528,12.75,73838.0,-0.93,-10.05,-13.73,0,*56
1495857876.48,1529,12.75,73834.0,-0.95,-11.55,-16.93,0,*5E
1495857877.69,1530,12.75,73828.8,-0.95,-12.29,-17.83,0,*5E
1495857878.91,1531,12.75,73836.0,-0.95,-11.07,-14.37,0,*5C
1495857880.11,1532,12.75,73824.8,-0.95,-10.23,-12.97,0,*54
1495857881.32,1533,12.75,73828.8,-0.93,-10.05,-13.23,0,*59
1495857882.54,1534,12.75,73832.8,-0.93,-9.05,-12.03,0,*65
1495857883.78,1535,12.75,73840.0,-0.93,-8.71,-12.15,0,*61
1495857885.03,1536,12.75,73836.3,-0.93,-8.93,-11.81,0,*60
1495857886.26,1537,12.75,73836.3,-0.93,-8.03,-10.85,0,*6D
1495857887.47,1538,12.75,73834.5,-0.91,-7.57,-11.23,0,*63
1495857888.71,1539,12.75,73856.0,-0.89,-7.49,-11.29,0,*6E
1495857889.95,1540,12.75,73846.8,-0.91,-8.11,-14.51,0,*61
1495857891.22,1541,12.75,73840.8,-0.89,-10.71,-17.93,0,*5B
1495857892.44,1542,12.75,73834.0,-0.89,-12.93,-20.63,0,*5D
1495857893.67,1543,12.75,73830.8,-0.91,-13.23,-15.81,0,*55
1495857894.89,1544,12.75,73816.5,-0.89,-11.23,-14.23,0,*50
1495857896.17,1545,12.75,73818.0,-0.89,-9.15,-10.67,0,*69
1495857897.4,1546,12.75,73824.3,-0.89,-6.69,-7.27,0,*5C
1495857898.58,1547,12.75,73832.8,-0.91,-5.43,-6.47,0,*58
1495857899.79,1548,12.75,73836.8,-0.91,-5.31,-7.15,0,*54
1495857901.02,1549,12.75,73826.8,-0.89,-5.43,-6.63,0,*59
1495857902.25,1550,12.75,73828.8,-0.89,-5.11,-6.47,0,*50
1495857903.51,1551,12.75,73838.3,-0.85,-5.93,-9.53,0,*5D
1495857904.74,1552,12.75,73848.3,-0.85,-8.03,-11.11,0,*65
1495857905.97,1553,12.75,73838.8,-0.83,-9.05,-12.43,0,*61
1495857907.22,1554,12.75,73834.5,-0.83,-8.45,-11.07,0,*60
1495857908.48,1555,12.75,73834.0,-0.83,-7.39,-9.37,0,*5F
1495857909.72,1556,12.75,73826.8,-0.83,-7.77,-10.23,0,*6B
1495857910.99,1557,12.75,73834.5,-0.83,-6.93,-9.11,0,*58
1495857912.22,1558,12.75,73840.8,-0.79,-5.65,-8.55,0,*59
1495857913.46,1559,12.75,73830.5,-0.79,-5.31,-8.21,0,*5A
1495857914.69,1560,12.75,73836.3,-0.79,-4.69,-6.51,0,*55
1495857915.89,1561,12.75,73848.8,-0.77,-4.45,-5.65,0,*50
1495857917.11,1562,12.75,73860.5,-0.75,-4.77,-6.73,0,*54
1495857918.35,1563,12.75,73858.3,-0.75,-5.69,-7.83,0,*55
1495857919.53,1564,12.75,73840.0,-0.77,-6.39,-8.55,0,*52
1495857920.76,1565,12.75,73858.0,-0.77,-6.93,-7.95,0,*50
1495857922.0,1566,12.75,73848.0,-0.75,-6.59,-6.63,0,*5F
1495857923.24,1567,12.75,73858.0,-0.75,-6.73,-5.07,0,*57
1495857924.47,1568,12.75,73850.3,-0.75,-5.69,-4.17,0,*50
1495857925.68,1569,12.75,73852.5,-0.77,-4.65,-3.51,0,*5B
1495857926.89,1570,12.75,73852.0,-0.75,-3.75,-3.39,0,*59
1495857928.13,1571,12.75,73852.0,-0.75,-3.15,-3.51,0,*50
1495857929.36,1572,12.75,73860.8,-0.75,-3.07,-3.51,0,*50
1495857930.58,1573,12.75,73858.3,-0.75,-3.07,-3.63,0,*50
1495857931.82,1574,12.75,73846.5,-0.75,-3.63,-4.25,0,*50
1495857933.04,1575,12.75,73840.5,-0.75,-4.41,-4.25,0,*56
1495857934.26,1576,12.75,73850.8,-0.75,-4.29,-3.71,0,*5D
1495857935.5,1577,12.75,73852.5,-0.75,-3.63,-3.27,0,*56
1495857936.73,1578,12.75,73854.0,-0.73,-3.63,-3.51,0,*5E
1495857937.94,1579,12.75,73854.5,-0.73,-3.51,-3.75,0,*58
1495857939.2,1580,12.75,73840.3,-0.75,-3.51,-3.63,0,*5F
1495857940.43,1581,12.75,73838.8,-0.75,-3.71,-4.13,0,*5C
1495857941.7,1582,12.75,73848.0,-0.75,-3.47,-4.01,0,*59
1495857942.94,1583,12.75,73846.8,-0.75,-3.47,-3.75,0,*5C
1495857944.18,1584,12.75,73852.8,-0.75,-3.59,-4.25,0,*56
1495857945.39,1585,12.75,73846.5,-0.73,-4.13,-5.31,0,*5C
1495857946.59,1586,12.75,73854.0,-0.73,-4.93,-6.43,0,*51
1495857947.77,1587,12.75,73844.5,-0.73,-6.35,-8.63,0,*52
1495857948.95,1588,12.75,73832.3,-0.73,-6.51,-9.31,0,*59
1495857950.2,1589,12.75,73832.0,-0.75,-7.39,-9.15,0,*57
1495857951.4,1590,12.75,73836.3,-0.77,-7.31,-8.75,0,*52
1495857952.62,1591,12.75,73838.8,-0.77,-9.05,-12.83,0,*68
1495857953.83,1592,12.75,73832.5,-0.77,-11.51,-16.45,0,*5D
1495857955.1,1593,12.75,73828.5,-0.79,-12.65,-17.03,0,*55
1495857956.32,1594,12.75,73834.3,-0.79,-13.65,-17.31,0,*52
1495857957.54,1595,12.75,73816.3,-0.81,-12.11,-12.43,0,*56
1495857958.8,1596,12.75,73800.8,-0.83,-10.89,-11.07,0,*57
1495857960.03,1597,12.75,73796.5,-0.83,-7.49,-7.77,0,*5C
1495857961.27,1598,12.75,73796.5,-0.83,-5.69,-5.35,0,*57
1495857962.48,1599,12.75,73796.3,-0.83,-4.37,-3.95,0,*50
1495857963.69,1600,12.75,73804.8,-0.83,-4.09,-3.95,0,*5E
1495857964.92,1601,12.75,73816.8,-0.85,-3.75,-3.63,0,*5C
1495857966.14,1602,12.75,73832.3,-0.83,-3.19,-3.07,0,*51
1495857967.35,1603,12.75,73844.5,-0.83,-3.07,-3.07,0,*5F
1495857968.56,1604,12.75,73840.5,-0.83,-3.15,-3.23,0,*5D
1495857969.76,1605,12.75,73840.0,-0.85,-3.19,-3.27,0,*52
1495857970.98,1606,12.75,73838.0,-0.83,-2.79,-2.95,0,*58
1495857972.2,1607,12.75,73820.3,-0.83,-2.95,-3.07,0,*51
1495857973.41,1608,12.75,73822.0,-0.83,-3.03,-3.07,0,*50
1495857974.62,1609,12.75,73828.5,-0.85,-2.83,-2.99,0,*58
1495857975.82,1610,12.75,73828.8,-0.83,-3.19,-3.23,0,*54
1495857977.05,1611,12.75,73810.3,-0.83,-3.23,-3.55,0,*5D
1495857978.27,1612,12.75,73814.8,-0.83,-3.31,-3.79,0,*53
1495857979.48,1613,12.75,73812.0,-0.83,-3.31,-4.45,0,*5A
1495857980.71,1614,12.75,73792.3,-0.83,-3.79,-4.61,0,*57
1495857981.93,1615,12.75,73808.3,-0.81,-4.33,-5.15,0,*5F
1495857983.13,1616,12.75,73846.0,-0.81,-4.45,-5.77,0,*59
1495857984.37,1617,12.75,73838.0,-0.81,-4.89,-6.19,0,*53
1495857985.58,1618,12.75,73844.3,-0.81,-6.27,-6.59,0,*5E
1495857986.85,1619,12.75,73826.8,-0.83,-5.65,-5.23,0,*56
1495857988.05,1620,12.75,73826.5,-0.85,-4.49,-4.65,0,*56
1495857989.28,1621,12.75,73846.5,-0.83,-3.91,-4.61,0,*57
1495857990.52,1622,12.75,73866.0,-0.83,-3.71,-4.57,0,*5F
1495857991.73,1623,12.75,73840.3,-0.83,-4.13,-6.13,0,*5F
1495857992.95,1624,12.75,73828.3,-0.83,-6.43,-9.97,0,*5C
1495857994.22,1625,12.75,73828.3,-0.83,-7.65,-7.77,0,*58
1495857995.46,1626,12.75,73838.0,-0.83,-6.43,-4.81,0,*54
1495857996.72,1627,12.75,73828.3,-0.83,-5.03,-3.71,0,*5A
1495857997.98,1628,12.75,73826.0,-0.83,-3.67,-2.71,0,*50
1495857999.19,1629,12.75,73828.0,-0.83,-2.91,-2.27,0,*5A
1495858000.43,1630,12.75,73830.0,-0.83,-2.59,-2.19,0,*5B
1495858001.66,1631,12.75,73832.3,-0.79,-2.15,-1.87,0,*53
1495858002.9,1632,12.75,73838.3,-0.75,-2.07,-1.59,0,*5C
1495858004.15,1633,12.75,73844.3,-0.75,-1.35,-1.01,0,*52
1495858005.38,1634,12.75,73842.8,-0.75,-1.25,-0.89,0,*65
1495858006.62,1635,12.75,73846.5,-0.71,-1.39,-1.17,0,*5B
1495858007.85,1636,12.75,73842.8,-0.69,-1.05,-0.93,0,*63
1495858009.08,1637,12.75,73838.0,-0.67,-1.05,-0.81,0,*6F
1495858010.33,1638,12.75,73838.8,-0.63,-1.09,-0.89,0,*60
1495858011.53,1639,12.75,73844.0,-0.61,-0.89,-0.73,0,*5F
1495858012.76,1640,12.75,73842.0,-0.57,-0.97,-0.85,0,*52
1495858013.94,1641,12.75,73844.0,-0.57,-1.17,-0.69,0,*68
1495858015.15,1642,12.75,73826.0,-0.53,-1.55,-1.05,0,*52
1495858016.38,1643,12.75,73822.0,-0.53,-1.43,-1.05,0,*54
1495858017.59,1644,12.75,73840.0,-0.49,-1.51,-1.47,0,*5D
1495858018.83,1645,12.75,73832.0,-0.47,-1.83,-2.23,0,*5C
1495858020.01,1646,12.75,73822.8,-0.45,-2.79,-3.19,0,*53
1495858021.24,1647,12.75,73826.0,-0.45,-3.67,-3.43,0,*53
1495858022.45,1648,12.75,73830.0,-0.43,-3.95,-3.03,0,*53
1495858023.66,1649,12.75,73842.3,-0.43,-4.09,-2.79,0,*5C
1495858024.86,1650,12.75,73844.8,-0.43,-4.29,-3.39,0,*53
1495858026.09,1651,12.75,73840.0,-0.43,-5.11,-4.45,0,*54
1495858027.35,1652,12.75,73846.3,-0.43,-5.11,-4.85,0,*5B
1495858028.56,1653,12.75,73846.5,-0.43,-7.19,-7.23,0,*5F
1495858029.82,1654,12.75,73850.3,-0.43,-9.53,-9.45,0,*56
1495858031.07,1655,12.75,73846.5,-0.43,-11.97,-10.19,0,*57
1495858032.32,1656,12.75,73838.5,-0.43,-13.55,-11.55,0,*51
1495858033.54,1657,12.75,73828.5,-0.45,-13.19,-7.61,0,*6E
1495858034.72,1658,12.75,73818.0,-0.45,-7.49,-3.95,0,*5E
1495858035.9,1659,12.75,73808.3,-0.45,-4.53,-2.79,0,*54
1495858037.08,1660,12.75,73806.0,-0.45,-3.23,-2.35,0,*56
1495858038.29,1661,12.75,73804.0,-0.45,-2.55,-2.19,0,*59
1495858039.52,1662,12.75,73818.3,-0.45,-1.95,-1.91,0,*56
1495858040.71,1663,12.75,73824.5,-0.45,-1.67,-1.67,0,*53
1495858041.97,1664,12.75,73836.5,-0.43,-1.43,-1.39,0,*5F
1495858043.18,1665,12.75,73836.3,-0.39,-1.17,-1.25,0,*5F
1495858044.44,1666,12.75,73832.0,-0.39,-1.35,-1.35,0,*5D
1495858045.67,1667,12.75,73834.0,-0.39,-1.63,-1.83,0,*52
1495858046.91,1668,12.75,73834.0,-0.39,-1.87,-2.35,0,*59
1495858048.12,1669,12.75,73836.8,-0.37,-2.35,-2.59,0,*56
1495858049.36,1670,12.75,73808.5,-0.37,-2.47,-2.71,0,*51
1495858050.57,1671,12.75,73816.5,-0.35,-2.95,-3.07,0,*5D
1495858051.81,1672,12.75,73826.0,-0.37,-2.71,-2.71,0,*56
1495858053.0,1673,12.75,73816.0,-0.37,-2.79,-3.03,0,*5B
1495858054.23,1674,12.75,73818.5,-0.37,-2.59,-2.71,0,*5A
1495858055.46,1675,12.75,73814.0,-0.35,-2.59,-3.19,0,*56
1495858056.67,1676,12.75,73812.3,-0.35,-3.35,-4.33,0,*51
1495858057.94,1677,12.75,73824.5,-0.35,-4.01,-5.65,0,*52
1495858059.18,1678,12.75,73816.0,-0.35,-5.51,-7.01,0,*59
1495858060.38,1679,12.75,73826.8,-0.35,-6.89,-8.97,0,*5E
1495858061.63,1680,12.75,73822.5,-0.35,-9.01,-11.59,0,*6D
1495858062.86,1681,12.75,73834.5,-0.35,-10.93,-16.83,0,*5F
1495858064.1,1682,12.75,73834.8,-0.37,-15.81,-20.99,0,*56
1495858065.33,1683,12.75,73828.0,-0.35,-15.75,-16.03,0,*58
1495858066.6,1684,12.75,73832.8,-0.35,-11.51,-12.75,0,*58
1495858067.82,1685,12.75,73828.8,-0.35,-9.71,-9.79,0,*54
1495858069.03,1686,12.75,73812.5,-0.35,-8.97,-8.21,0,*52
1495858070.26,1687,12.75,73820.3,-0.37,-7.05,-7.95,0,*55
1495858071.52,1688,12.75,73828.8,-0.35,-6.19,-7.77,0,*58
1495858072.77,1689,12.75,73822.8,-0.35,-11.51,-16.03,0,*50
1495858073.99,1690,12.75,73828.3,-0.37,-14.33,-15.39,0,*51
1495858075.22,1691,12.75,73836.0,-0.35,-15.63,-12.21,0,*58
1495858076.41,1692,12.75,73828.3,-0.37,-10.45,-6.51,0,*6A
1495858077.65,1693,12.75,73824.3,-0.35,-6.31,-5.27,0,*5F
1495858078.91,1694,12.75,73808.0,-0.35,-4.77,-5.03,0,*5E
1495858080.15,1695,12.75,73802.5,-0.35,-4.09,-5.19,0,*5D
1495858081.4,1696,12.75,73796.5,-0.35,-4.01,-4.61,0,*58
1495858082.6,1697,12.75,73802.0,-0.33,-3.35,-3.63,0,*5A
1495858083.81,1698,12.75,73806.5,-0.31,-2.79,-2.79,0,*54
1495858085.08,1699,12.75,73806.3,-0.31,-2.55,-2.51,0,*51
1495858086.31,1700,12.75,73800.3,-0.31,-2.43,-2.67,0,*52
1495858087.52,1701,12.75,73806.0,-0.29,-2.67,-4.29,0,*50
1495858088.74,1702,12.75,73818.5,-0.29,-3.39,-4.81,0,*5B
1495858089.99,1703,12.75,73812.3,-0.27,-3.91,-5.07,0,*59
1495858091.21,1704,12.75,73814.8,-0.29,-3.91,-5.93,0,*5D
1495858092.46,1705,12.75,73816.0,-0.29,-6.23,-10.79,0,*60
1495858093.72,1706,12.75,73824.5,-0.27,-9.15,-13.37,0,*6E
1495858094.95,1707,12.75,73806.5,-0.29,-10.79,-16.75,0,*50
1495858096.18,1708,12.75,73812.0,-0.29,-9.37,-17.87,0,*61
1495858097.4,1709,12.75,73802.0,-0.29,-12.47,-24.83,0,*59
1495858098.62,1710,12.75,73808.3,-0.29,-15.95,-26.13,0,*52
1495858099.87,1711,12.75,73814.0,-0.31,-18.99,-27.19,0,*50
1495858101.1,1712,12.75,73816.5,-0.33,-21.47,-28.63,0,*5A
1495858102.32,1713,12.75,73818.8,-0.33,-21.47,-28.59,0,*52
1495858103.54,1714,12.75,73830.0,-0.37,-22.73,-29.45,0,*59
1495858104.79,1715,12.75,73822.5,-0.37,-24.15,-31.61,0,*51
1495858106.0,1716,12.75,73820.8,-0.39,-25.23,-29.95,0,*5A
1495858107.21,1717,12.75,73828.5,-0.45,-23.43,-30.45,0,*55
1495858108.43,1718,12.75,73832.3,-0.47,-23.43,-29.45,0,*50
1495858109.69,1719,12.75,73828.5,-0.47,-24.35,-30.77,0,*5E
1495858110.92,1720,12.75,73830.5,-0.49,-22.67,-30.17,0,*5D